Date,TemperatureHighF,TemperatureAvgF,TemperatureLowF,DewpointHighF,DewpointAvgF,DewpointLowF,HumidityHigh,HumidityAvg,HumidityLow,PressureMaxIn,PressureMinIn,WindSpeedMaxMPH,WindSpeedAvgMPH,GustSpeedMaxMPH,PrecipitationSumIn
2013-2-1,23.0,19.5,18.0,18.0,11.3,7.0,92,70,53,30.11,29.62,13,7,23,0.00
2013-2-2,19.0,16.6,10.0,16.0,9.7,7.0,92,74,57,30.13,29.95,10,5,0,0.00
2013-2-3,28.0,15.1,0.0,18.0,8.1,-6.0,92,75,46,29.95,29.72,9,2,0,0.00
2013-2-4,23.0,18.1,12.0,16.0,11.1,5.0,92,75,45,29.88,29.75,15,5,29,0.00
2013-2-5,25.0,18.0,12.0,16.0,11.4,9.0,92,76,58,29.92,29.80,7,2,0,0.00
2013-2-6,28.0,21.3,3.0,23.0,12.8,0.0,92,71,33,30.33,29.83,17,5,27,0.00
2013-2-7,30.0,18.6,1.0,14.0,7.3,-2.0,92,64,42,30.44,30.19,18,5,25,0.00
2013-2-8,36.0,30.5,27.0,27.0,24.0,12.0,92,76,50,30.19,29.77,18,10,25,0.00
2013-2-9,27.0,16.4,3.0,23.0,10.2,1.0,92,76,57,30.34,29.84,16,8,24,0.00
2013-2-10,36.0,22.8,1.0,16.0,10.5,-2.0,92,63,31,30.41,30.09,15,5,28,0.00
2013-2-11,41.0,36.7,34.0,37.0,28.0,9.0,93,72,34,30.09,29.61,20,11,28,0.00
2013-2-12,36.0,34.0,30.0,28.0,25.8,21.0,80,71,55,29.92,29.68,16,8,29,0.00
2013-2-13,37.0,31.6,28.0,25.0,21.9,18.0,86,68,47,29.88,29.69,7,1,0,0.00
2013-2-14,39.0,31.0,19.0,32.0,23.8,18.0,93,75,51,29.91,29.72,10,4,0,0.00
2013-2-15,41.0,35.3,28.0,32.0,25.7,18.0,93,69,44,29.99,29.81,13,7,23,0.00
2013-2-16,28.0,24.4,18.0,21.0,13.7,7.0,85,64,42,29.98,29.84,12,5,0,0.00
2013-2-17,18.0,14.0,10.0,9.0,6.0,3.0,85,70,56,29.99,29.78,20,9,30,0.00
2013-2-18,28.0,17.0,10.0,12.0,7.7,3.0,85,67,45,30.20,29.98,16,6,23,0.00
2013-2-19,39.0,32.9,27.0,34.0,22.7,10.0,93,68,44,30.03,29.60,15,9,30,0.00
2013-2-20,28.0,23.6,21.0,23.0,13.8,9.0,79,66,49,29.91,29.68,22,10,30,0.00
2013-2-21,21.0,17.9,16.0,18.0,12.0,7.0,92,77,67,30.36,29.88,17,9,29,0.00
2013-2-22,37.0,27.6,19.0,27.0,20.3,16.0,92,74,51,30.36,30.11,18,7,27,0.00
2013-2-23,37.0,35.8,32.0,36.0,31.8,23.0,100,84,64,30.11,29.82,17,10,28,0.00
2013-2-24,36.0,31.7,30.0,36.0,27.0,23.0,100,82,64,29.97,29.80,12,5,17,0.00
2013-2-25,34.0,28.7,21.0,30.0,25.3,18.0,100,87,69,30.22,29.97,9,3,0,0.00
2013-2-26,43.0,30.5,16.0,28.0,22.5,12.0,100,73,48,30.24,29.88,16,6,22,0.00
2013-2-27,39.0,36.3,34.0,36.0,32.1,28.0,100,85,69,29.90,29.53,17,7,28,0.00
2013-2-28,37.0,35.4,34.0,36.0,33.6,32.0,100,94,86,29.62,29.53,7,1,0,0.00